# Mixing ratio of CO2 (xCO2) in dry air measured onboard R/V Mirai (NODC Code: unknown) of the Japan Marine Science and Technology Center (JAMSTEC).,,,,,,,,,,,,,,,,,,,,,,
# Measured by Meteorological Research Institute. ,,,,,,,,,,,,,,,,,,,,,,
"# Ver. 3.0; August, 2005",,,,,,,,,,,,,,,,,,,,,,
# PI : M Ishii,,,,,,,,,,,,,,,,,,,,,,
# Concetrarion scale = MRI87,,,,,,,,,,,,,,,,,,,,,,
# Date and Time = UTC,,,,,,,,,,,,,,,,,,,,,,
"# Quality flag (F); good=2, questionable=3, bad =4, not reported = 5, no data =9",,,,,,,,,,,,,,,,,,,,,,
# Data and Cruise Report: http://www.jamstec.go.jp/mirai/track_line/MR99-K07.html,,,,,,,,,,,,,,,,,,,,,,
# Underway DIC data also available from the website,,,,,,,,,,,,,,,,,,,,,,
Ship,Cruise,Serial No.,Date,,,Time,,Latitude,Longitude,xCO2_Air,F,xCO2_Sea,F,Wind_Dir,Wind_Spd,Atm_Prs,Atm_Tmp.,SST,F,SSS,F,pH2O
,,,Year,Month,Day,Hour,Min.,Deg.,Deg.,ppm,,ppm,,Deg.,m/s,hPa,deg.C,deg.C,,,,hPa
Mirai,MR99K7,1,1999,11,21,2,38,12.6397,143.7724,-9.99,9,379.93,2,65,3.9,1008.5,30.3,29.41,2,34.695,2,40.24
Mirai,MR99K7,2,1999,11,21,2,50,12.601,143.7339,-9.99,9,378.65,2,57,5.7,1008.3,30.6,29.46,2,34.72,2,40.35
Mirai,MR99K7,3,1999,11,21,2,56,12.5807,143.7135,367.9,2,-9.99,9,48,4.2,1008.4,30.5,29.48,2,34.737,2,40.41
Mirai,MR99K7,4,1999,11,21,3,2,12.5614,143.6939,367.88,2,-9.99,9,52,4.7,1008.2,30.7,29.51,2,34.762,2,40.48
Mirai,MR99K7,5,1999,11,21,3,17,12.5171,143.6471,-9.99,9,377.76,2,38,5.5,1008.2,30.3,29.55,2,34.79,2,40.57
Mirai,MR99K7,6,1999,11,21,3,29,12.48,143.6074,-9.99,9,377.7,2,45,4.9,1007.8,30.6,29.54,2,34.783,2,40.54
Mirai,MR99K7,7,1999,11,21,4,8,12.3578,143.4768,-9.99,9,377.02,2,52.5,5.5,1007.25,30.9,29.55,2,34.779,2,40.56
Mirai,MR99K7,8,1999,11,21,4,20,12.32,143.4368,-9.99,9,377.37,2,49,5.6,1007,30.9,29.54,2,34.77,2,40.54
Mirai,MR99K7,9,1999,11,21,4,26,12.2998,143.4154,368.02,2,-9.99,9,52,5.6,1007,30.6,29.55,2,34.77,2,40.56
Mirai,MR99K7,10,1999,11,21,4,32,12.279,143.397,367.79,2,-9.99,9,40,5.3,1006.9,30.5,29.53,2,34.779,2,40.53
Mirai,MR99K7,11,1999,11,21,4,47,12.23,143.3537,-9.99,9,376.64,2,53,6.1,1007.1,30.8,29.49,2,34.769,2,40.43
Mirai,MR99K7,12,1999,11,21,4,59,12.189,143.3155,-9.99,9,376.4,2,58,5.2,1006.7,30.7,29.45,2,34.762,2,40.32
Mirai,MR99K7,13,1999,11,21,5,38,12.0612,143.1822,-9.99,9,378.54,2,64,7,1006.6,30.4,29.42,2,34.724,2,40.26
Mirai,MR99K7,14,1999,11,21,5,50,12.0224,143.1414,-9.99,9,378.42,2,48,6,1006.5,30.3,29.46,2,34.733,2,40.36
Mirai,MR99K7,15,1999,11,21,5,56,12.0021,143.1198,367.68,2,-9.99,9,63,6.2,1006.5,30.1,29.5,2,34.752,2,40.45
Mirai,MR99K7,16,1999,11,21,6,2,11.9829,143.0993,367.68,2,-9.99,9,55,7.9,1006.5,30.1,29.49,2,34.764,2,40.42
Mirai,MR99K7,17,1999,11,21,6,17,11.9378,143.051,-9.99,9,378.06,2,56,7.5,1006.5,29.7,29.48,2,34.753,2,40.41
Mirai,MR99K7,18,1999,11,21,6,29,11.8996,143.0108,-9.99,9,378.7,2,47,7.1,1006.5,29.9,29.49,2,34.763,2,40.42
Mirai,MR99K7,19,1999,11,21,7,8,11.7722,142.8801,-9.99,9,379.73,2,53,6.9,1006.6,29.5,29.48,2,34.755,2,40.4
Mirai,MR99K7,20,1999,11,21,7,20,11.7333,142.8404,-9.99,9,379.13,2,58,6.7,1006.8,29.3,29.48,2,34.753,2,40.4
Mirai,MR99K7,21,1999,11,21,7,26,11.713,142.8198,367.35,2,-9.99,9,63,7,1006.9,29.1,29.48,2,34.752,2,40.4
Mirai,MR99K7,22,1999,11,21,7,32,11.6938,142.8004,367.32,2,-9.99,9,62,6.7,1006.9,29.1,29.49,2,34.725,2,40.42
Mirai,MR99K7,23,1999,11,21,7,47,11.648,142.7544,-9.99,9,381.07,2,57,5.8,1007.2,28.8,29.43,2,34.698,2,40.28
Mirai,MR99K7,24,1999,11,21,7,59,11.6091,142.716,-9.99,9,381.19,2,66,5.7,1007.4,28.7,29.42,2,34.678,2,40.27
Mirai,MR99K7,25,1999,11,21,8,38,11.4818,142.5908,-9.99,9,380.84,2,64,6.1,1007.5,28.4,29.47,2,34.63,2,40.37
Mirai,MR99K7,26,1999,11,21,8,50,11.4437,142.5528,-9.99,9,380.79,2,63,6.3,1007.6,28.3,29.46,2,34.628,2,40.36
Mirai,MR99K7,27,1999,11,21,8,56,11.4235,142.5328,367.44,2,-9.99,9,57,8.1,1007.6,28.3,29.46,2,34.636,2,40.36
Mirai,MR99K7,28,1999,11,21,9,2,11.4044,142.5139,367.43,2,-9.99,9,55,7.5,1007.8,28.2,29.47,2,34.643,2,40.39
Mirai,MR99K7,29,1999,11,21,9,17,11.3592,142.4691,-9.99,9,380.9,2,61,7.3,1007.7,28.2,29.39,2,34.632,2,40.19
Mirai,MR99K7,30,1999,11,21,9,29,11.321,142.431,-9.99,9,380.83,2,60,8,1007.8,28.2,29.39,2,34.63,2,40.19
Mirai,MR99K7,31,1999,11,21,10,8,11.1973,142.3055,-9.99,9,379.97,2,82,8,1008.1,28.4,29.37,2,34.645,2,40.15
Mirai,MR99K7,32,1999,11,21,10,20,11.16,142.2672,-9.99,9,377.01,2,74,8.8,1008.3,28.4,29.33,2,34.495,2,40.05
Mirai,MR99K7,33,1999,11,21,10,26,11.14,142.2472,367.57,2,-9.99,9,70,9.5,1008.3,28.4,29.34,2,34.54,2,40.07
Mirai,MR99K7,34,1999,11,21,10,32,11.1211,142.2284,367.24,2,-9.99,9,69,8.2,1008.3,28.4,29.33,2,34.552,2,40.05
Mirai,MR99K7,35,1999,11,21,10,47,11.0761,142.1842,-9.99,9,378.31,2,68,9,1008.3,28.3,29.34,2,34.626,2,40.06
Mirai,MR99K7,36,1999,11,21,10,59,11.038,142.1464,-9.99,9,379.19,2,74,8,1008.4,28.3,29.38,2,34.622,2,40.16
Mirai,MR99K7,37,1999,11,21,11,38,10.9141,142.0205,-9.99,9,379.41,2,84,8.5,1008.7,28.4,29.36,2,34.688,2,40.13
Mirai,MR99K7,38,1999,11,21,11,50,10.8755,141.982,-9.99,9,378.18,2,74,8.3,1008.8,28.4,29.33,2,34.701,2,40.06
Mirai,MR99K7,39,1999,11,21,11,56,10.8557,141.9621,367.21,2,-9.99,9,85,8.2,1008.9,28.3,29.33,2,34.698,2,40.05
Mirai,MR99K7,40,1999,11,21,12,2,10.8368,141.9431,367.24,2,-9.99,9,89,8.6,1008.9,28.4,29.33,2,34.695,2,40.05
Mirai,MR99K7,41,1999,11,21,12,17,10.7915,141.8976,-9.99,9,379.47,2,90,9,1009,28.5,29.34,2,34.691,2,40.07
Mirai,MR99K7,42,1999,11,21,12,29,10.7535,141.8594,-9.99,9,379.06,2,84,8.8,1009,28.5,29.33,2,34.693,2,40.04
Mirai,MR99K7,43,1999,11,21,13,8,10.6284,141.7317,-9.99,9,377.52,2,89,8.3,1008.9,28.5,29.38,2,34.693,2,40.17
Mirai,MR99K7,44,1999,11,21,13,20,10.5903,141.6927,-9.99,9,378.03,2,84,7.7,1008.9,28.5,29.4,2,34.702,2,40.2
Mirai,MR99K7,45,1999,11,21,13,26,10.5701,141.6721,367.1,2,-9.99,9,89,7.6,1008.9,28.4,29.38,2,34.706,2,40.17
Mirai,MR99K7,46,1999,11,21,13,32,10.5511,141.6524,367.09,2,-9.99,9,75,7.6,1008.8,28.4,29.38,2,34.705,2,40.17
Mirai,MR99K7,47,1999,11,21,13,47,10.5057,141.6063,-9.99,9,378.19,2,65,8.6,1008.8,28.5,29.38,2,34.714,2,40.16
Mirai,MR99K7,48,1999,11,21,13,59,10.4676,141.5671,-9.99,9,378.44,2,78,8,1008.7,28.4,29.35,2,34.711,2,40.11
Mirai,MR99K7,49,1999,11,21,14,38,10.3428,141.4393,-9.99,9,380.77,2,79,6.9,1008.6,28.5,29.37,2,34.682,2,40.14
Mirai,MR99K7,50,1999,11,21,14,50,10.305,141.4003,-9.99,9,382.61,2,76.5,6.25,1008.55,28.4,29.35,2,34.655,2,40.09
Mirai,MR99K7,51,1999,11,21,14,56,10.2847,141.3791,367.24,2,-9.99,9,74,5.6,1008.5,28.3,29.33,2,34.627,2,40.04
Mirai,MR99K7,52,1999,11,21,15,2,10.2658,141.3596,367.2,2,-9.99,9,94,5.6,1008.5,28.3,29.33,2,34.618,2,40.05
Mirai,MR99K7,53,1999,11,21,15,17,10.2204,141.3133,-9.99,9,383.5,2,82,6.2,1008.3,28.2,29.37,2,34.634,2,40.14
Mirai,MR99K7,54,1999,11,21,15,29,10.1822,141.2744,-9.99,9,384.04,2,82,7.2,1008.1,28.2,29.39,2,34.646,2,40.18
Mirai,MR99K7,55,1999,11,21,16,8,10.0551,141.1477,-9.99,9,384.67,2,95,6.8,1007.8,28.1,29.38,2,34.675,2,40.16
Mirai,MR99K7,56,1999,11,21,16,20,10.0164,141.1094,-9.99,9,384.92,2,89,8.6,1007.7,27.9,29.32,2,34.664,2,40.03
Mirai,MR99K7,57,1999,11,21,16,26,9.9958,141.0893,367.28,2,-9.99,9,114,6.8,1007.6,27.9,29.31,2,34.662,2,40.01
Mirai,MR99K7,58,1999,11,21,16,32,9.9764,141.0703,367.17,2,-9.99,9,108,5.2,1007.5,27.9,29.32,2,34.657,2,40.02
Mirai,MR99K7,59,1999,11,21,16,47,9.9309,141.0254,-9.99,9,384.6,2,109,6.2,1007.4,27.8,29.31,2,34.649,2,40.01
Mirai,MR99K7,60,1999,11,21,16,59,9.8922,140.987,-9.99,9,385.67,2,85,4.7,1007.3,27.6,29.3,2,34.649,2,39.99
Mirai,MR99K7,61,1999,11,21,17,38,9.7687,140.8584,-9.99,9,384.35,2,94,5,1007.1,27.7,29.27,2,34.612,2,39.92
Mirai,MR99K7,62,1999,11,21,17,50,9.7318,140.8186,-9.99,9,384.04,2,90,5.3,1007,27.8,29.27,2,34.602,2,39.92
Mirai,MR99K7,63,1999,11,21,17,56,9.7121,140.7975,367.23,2,-9.99,9,103,4.4,1006.9,28,29.29,2,34.598,2,39.95
Mirai,MR99K7,64,1999,11,21,18,2,9.6936,140.7773,367.22,2,-9.99,9,100,4.7,1006.9,27.9,29.3,2,34.591,2,39.99
Mirai,MR99K7,65,1999,11,21,18,17,9.6499,140.7295,-9.99,9,383.9,2,112,4.3,1006.9,27.8,29.32,2,34.582,2,40.02
Mirai,MR99K7,66,1999,11,21,18,29,9.6123,140.6891,-9.99,9,383.87,2,93,4.5,1007,27.9,29.27,2,34.575,2,39.92
Mirai,MR99K7,67,1999,11,21,19,8,9.4857,140.5599,-9.99,9,379.77,2,93,6.1,1007.3,26.9,29.29,2,34.517,2,39.96
Mirai,MR99K7,68,1999,11,21,19,20,9.447,140.5207,-9.99,9,378.06,2,90,6.3,1007.3,27.2,29.3,2,34.47,2,39.99
Mirai,MR99K7,69,1999,11,21,19,26,9.4261,140.5006,367.22,2,-9.99,9,77,6.7,1007.3,27.3,29.38,2,34.518,2,40.17
Mirai,MR99K7,70,1999,11,21,19,32,9.4062,140.4816,367.16,2,-9.99,9,90,6.1,1007.3,27.4,29.41,2,34.545,2,40.23
Mirai,MR99K7,71,1999,11,21,19,47,9.3593,140.4375,-9.99,9,381.74,2,91,5.5,1007.4,27.4,29.38,2,34.564,2,40.16
Mirai,MR99K7,72,1999,11,21,19,59,9.3197,140.4003,-9.99,9,380.21,2,91,4.9,1007.4,27.4,29.35,2,34.449,2,40.09
Mirai,MR99K7,73,1999,11,21,20,38,9.1924,140.2762,-9.99,9,378.28,2,121,2.6,1007.5,27.4,29.38,2,34.373,2,40.16
Mirai,MR99K7,74,1999,11,21,20,50,9.1541,140.2384,-9.99,9,375.96,2,116,2.7,1007.8,27.4,29.44,2,34.261,2,40.3
Mirai,MR99K7,75,1999,11,21,20,56,9.1339,140.218,367.1,2,-9.99,9,97,4.2,1007.9,27.5,29.45,2,34.227,2,40.32
Mirai,MR99K7,76,1999,11,21,21,2,9.1148,140.1983,367.11,2,-9.99,9,96,3.8,1008.1,27.5,29.46,2,34.203,2,40.35
Mirai,MR99K7,77,1999,11,21,21,17,9.0696,140.1528,-9.99,9,374.98,2,83,3.5,1008.1,27.7,29.53,2,34.173,2,40.51
Mirai,MR99K7,78,1999,11,21,21,29,9.0316,140.1146,-9.99,9,374.31,2,91,4.1,1008.3,28,29.49,2,34.157,2,40.42
Mirai,MR99K7,79,1999,11,21,22,8,8.9097,139.9845,-9.99,9,372,2,65,4.2,1008.8,28.3,29.6,2,34.133,2,40.67
Mirai,MR99K7,80,1999,11,21,22,20,8.8736,139.9442,-9.99,9,371.18,2,83,4.4,1008.9,28.4,29.63,2,34.037,2,40.76
Mirai,MR99K7,81,1999,11,21,22,26,8.8539,139.9231,367.09,2,-9.99,9,83,4.2,1008.9,28.4,29.63,2,34.034,2,40.76
Mirai,MR99K7,82,1999,11,21,22,32,8.8348,139.9033,367.09,2,-9.99,9,76,4.5,1009.4,28.4,29.64,2,34.08,2,40.78
Mirai,MR99K7,83,1999,11,21,22,47,8.7894,139.8572,-9.99,9,374.14,2,85,4.8,1009.4,28.6,29.68,2,34.151,2,40.87
Mirai,MR99K7,84,1999,11,21,22,59,8.7512,139.8188,-9.99,9,374.1,2,83,4.7,1009.1,28.8,29.61,2,34.156,2,40.7
Mirai,MR99K7,85,1999,11,21,23,38,8.6291,139.6969,-9.99,9,360.34,2,89,3.5,1009.3,29.3,29.58,2,33.667,2,40.64
Mirai,MR99K7,86,1999,11,21,23,50,8.5911,139.6588,-9.99,9,361.01,2,85,3.3,1009.1,29.5,29.6,2,33.67,2,40.69
Mirai,MR99K7,87,1999,11,21,23,56,8.5711,139.6383,366.98,2,-9.99,9,120,3.5,1009.1,29.5,29.61,2,33.673,2,40.7
Mirai,MR99K7,88,1999,11,22,0,2,8.5521,139.6192,366.94,2,-9.99,9,164,9,1009.2,29,29.6,2,33.665,2,40.68
Mirai,MR99K7,89,1999,11,22,0,17,8.509,139.5748,-9.99,9,361.03,2,168,11.8,1009,26.6,29.57,2,33.67,2,40.6
Mirai,MR99K7,90,1999,11,22,0,29,8.4736,139.5374,-9.99,9,361.78,2,156,9.2,1009.2,25.9,29.57,2,33.682,2,40.62
Mirai,MR99K7,91,1999,11,22,1,8,8.3548,139.4114,-9.99,9,359.5,2,102,3.8,1009.2,25.2,29.49,2,33.705,2,40.43
Mirai,MR99K7,92,1999,11,22,1,20,8.3177,139.3729,-9.99,9,360.77,2,95,3.2,1009,25.6,29.51,2,33.739,2,40.46
Mirai,MR99K7,93,1999,11,22,1,26,8.298,139.3527,367.02,2,-9.99,9,66,2.8,1008.9,25.5,29.54,2,33.751,2,40.54
Mirai,MR99K7,94,1999,11,22,1,32,8.2793,139.3336,367.07,2,-9.99,9,45,3.3,1008.8,25.8,29.57,2,33.791,2,40.62
Mirai,MR99K7,95,1999,11,22,1,47,8.2355,139.2882,-9.99,9,363.53,2,48,3.2,1008.5,26.3,29.56,2,33.787,2,40.6
Mirai,MR99K7,96,1999,11,22,1,59,8.1994,139.2501,-9.99,9,363.67,2,51,3.1,1008.4,26.7,29.6,2,33.808,2,40.67
Mirai,MR99K7,97,1999,11,22,2,38,8.0769,139.1298,-9.99,9,371.27,2,24,2.3,1007.6,27.8,29.63,2,34.084,2,40.74
Mirai,MR99K7,98,1999,11,22,2,50,8.0379,139.0933,-9.99,9,370.01,2,25,2.2,1007.4,28.2,29.62,2,34.064,2,40.72
Mirai,MR99K7,99,1999,11,22,2,56,8.0173,139.074,367,2,-9.99,9,51,1.6,1007.4,28.5,29.64,2,34.068,2,40.78
Mirai,MR99K7,100,1999,11,22,3,2,7.9978,139.056,366.93,2,-9.99,9,29,1.5,1007.3,28.4,29.68,2,34.078,2,40.88
Mirai,MR99K7,101,1999,11,22,3,17,7.9342,139.0072,-9.99,9,381.38,2,35,0.75,1007.3,28.6,29.73,2,34.022,2,40.98
Mirai,MR99K7,102,1999,11,22,3,29,7.9155,138.9778,-9.99,9,376.65,2,40,0,1007.3,28.9,29.77,2,33.967,2,41.08
Mirai,MR99K7,103,1999,11,22,4,8,7.7963,138.8571,-9.99,9,360.08,2,118,1,1007.1,29.4,29.72,2,33.762,2,40.96
Mirai,MR99K7,104,1999,11,22,4,20,7.7595,138.8211,-9.99,9,360.95,2,85,0.7,1006.6,29.4,29.81,2,33.751,2,41.17
Mirai,MR99K7,105,1999,11,22,4,26,7.7399,138.8015,367.05,2,-9.99,9,47,1.6,1006.5,29.4,29.81,2,33.726,2,41.18
Mirai,MR99K7,106,1999,11,22,4,32,7.7216,138.7834,367.12,2,-9.99,9,104,1.3,1006.7,29.4,29.8,2,33.708,2,41.14
Mirai,MR99K7,107,1999,11,22,4,47,7.6778,138.7401,-9.99,9,360.03,2,124,0.7,1006.5,29.4,29.8,2,33.652,2,41.15
Mirai,MR99K7,108,1999,11,22,4,59,7.6405,138.7027,-9.99,9,360,2,91,1.7,1006.3,29.3,29.79,2,33.667,2,41.13
Mirai,MR99K7,109,1999,11,22,5,38,7.5231,138.5781,-9.99,9,363,2,231,0.3,1006,29.7,29.9,2,33.685,2,41.38
Mirai,MR99K7,110,1999,11,22,5,50,7.4881,138.5402,-9.99,9,361.35,2,304,0.6,1005.9,29.5,29.91,2,33.604,2,41.4
Mirai,MR99K7,111,1999,11,22,5,56,7.4697,138.5202,366.82,2,-9.99,9,40,0.3,1005.9,29.5,29.93,2,33.534,2,41.47
Mirai,MR99K7,112,1999,11,22,6,2,7.4523,138.5013,366.89,2,-9.99,9,160,0.7,1006.2,29.6,29.83,2,33.484,2,41.22
Mirai,MR99K7,113,1999,11,22,6,17,7.4115,138.4565,-9.99,9,356.37,2,131,0.7,1006.3,29.5,29.78,2,33.436,2,41.11
Mirai,MR99K7,114,1999,11,22,6,29,7.3763,138.4182,-9.99,9,355.69,2,199,0.6,1006.1,29.6,29.82,2,33.406,2,41.21
Mirai,MR99K7,115,1999,11,22,7,8,7.2619,138.2911,-9.99,9,359.39,2,225,0.5,1006.3,29.2,30.03,2,33.403,2,41.69
Mirai,MR99K7,116,1999,11,22,7,20,7.2274,138.2518,-9.99,9,359.67,2,163,1,1006.3,29.2,30.06,2,33.397,2,41.77
Mirai,MR99K7,117,1999,11,22,7,26,7.2093,138.231,366.84,2,-9.99,9,173,0.8,1006.5,29.2,30.07,2,33.404,2,41.8
Mirai,MR99K7,118,1999,11,22,7,32,7.192,138.2114,366.76,2,-9.99,9,200,1.4,1006.4,29.2,30.14,2,33.407,2,41.97
Mirai,MR99K7,119,1999,11,22,7,47,7.1514,138.1653,-9.99,9,360.51,2,126,0.8,1006.5,29,30.09,2,33.424,2,41.84
Mirai,MR99K7,120,1999,11,22,7,59,7.1175,138.1262,-9.99,9,361.66,2,204,1.5,1006.6,29,30.21,2,33.424,2,42.14
Mirai,MR99K7,121,1999,11,22,8,38,7.0013,138.002,-9.99,9,363.46,2,278,0.5,1006.9,28.6,30.25,2,33.474,2,42.23
Mirai,MR99K7,122,1999,11,22,8,50,6.9645,137.9652,-9.99,9,363.4,2,298,0.6,1007,28.5,30.26,2,33.468,2,42.24
Mirai,MR99K7,123,1999,11,22,8,56,6.9448,137.9455,366.71,2,-9.99,9,240,0.5,1007.2,28.5,30,2,33.462,2,41.63
Mirai,MR99K7,124,1999,11,22,9,2,6.9262,137.9267,366.74,2,-9.99,9,190,0.4,1007.2,28.6,30.15,2,33.456,2,41.98
Mirai,MR99K7,125,1999,11,22,9,17,6.8828,137.8828,-9.99,9,362.32,2,205,0.4,1007.4,28.6,30.18,2,33.479,2,42.07
Mirai,MR99K7,126,1999,11,22,9,29,6.8459,137.8452,-9.99,9,363.73,2,222,0.2,1007.6,28.6,30.22,2,33.501,2,42.15
Mirai,MR99K7,127,1999,11,22,10,8,6.7262,137.7223,-9.99,9,359.99,2,141,0.4,1007.9,28.4,30.01,2,33.499,2,41.66
Mirai,MR99K7,128,1999,11,22,10,20,6.6896,137.6845,-9.99,9,361.17,2,31,0.8,1007.9,28.3,30.04,2,33.557,2,41.72
Mirai,MR99K7,129,1999,11,22,10,26,6.67,137.6647,366.86,2,-9.99,9,77,0.9,1008,28.3,30.08,2,33.617,2,41.81
Mirai,MR99K7,130,1999,11,22,10,32,6.6514,137.6461,366.79,2,-9.99,9,112,0.3,1008.1,28.3,30.03,2,33.654,2,41.7
Mirai,MR99K7,131,1999,11,22,10,47,6.61,137.6051,-9.99,9,360.37,2,200,2.3,1008.1,27.8,29.94,2,33.644,2,41.47
Mirai,MR99K7,132,1999,11,22,10,59,6.5703,137.5658,-9.99,9,359.63,2,291,4.2,1008.2,27.3,29.84,2,33.633,2,41.25
Mirai,MR99K7,133,1999,11,22,11,38,6.4503,137.4433,-9.99,9,363.33,2,66,0.5,1008.6,28,29.96,2,33.738,2,41.54
Mirai,MR99K7,134,1999,11,22,11,50,6.4139,137.4063,-9.99,9,364.11,2,223,2,1008.6,28.2,29.91,2,33.828,2,41.42
Mirai,MR99K7,135,1999,11,22,11,56,6.3939,137.3873,367.02,2,-9.99,9,223,1.6,1008.7,28.3,29.74,2,33.777,2,41.01
Mirai,MR99K7,136,1999,11,22,12,2,6.3753,137.3691,367,2,-9.99,9,250,1.1,1008.7,28.3,29.73,2,33.7,2,40.98
Mirai,MR99K7,137,1999,11,22,12,17,6.3315,137.3265,-9.99,9,360.46,2,228,1.8,1008.7,28.2,29.74,2,33.724,2,41.01
Mirai,MR99K7,138,1999,11,22,12,29,6.2946,137.2906,-9.99,9,360.71,2,350,2.4,1008.7,28.1,29.79,2,33.725,2,41.12
Mirai,MR99K7,139,1999,11,22,13,8,6.1798,137.1701,-9.99,9,359.87,2,293,1.7,1008.7,28.1,29.81,2,33.649,2,41.18
Mirai,MR99K7,140,1999,11,22,13,20,6.1435,137.1341,-9.99,9,358.12,2,289,3,1008.6,28.3,29.79,2,33.577,2,41.12
Mirai,MR99K7,141,1999,11,22,13,26,6.1243,137.115,366.87,2,-9.99,9,291,2.7,1008.6,28.3,29.8,2,33.583,2,41.16
Mirai,MR99K7,142,1999,11,22,13,32,6.1058,137.097,366.84,2,-9.99,9,274,2.5,1008.4,28.3,29.83,2,33.645,2,41.23
Mirai,MR99K7,143,1999,11,22,13,47,6.0622,137.0704,-9.99,9,374.07,2,266,2.4,1008.4,28.2,29.82,2,33.705,2,41.19
Mirai,MR99K7,144,1999,11,22,13,59,6.0256,137.0171,-9.99,9,373.79,2,258,2.3,1008.4,28.2,29.8,2,33.764,2,41.15
Mirai,MR99K7,145,1999,11,22,14,38,5.9049,136.8988,-9.99,9,359.32,2,331,0.8,1008.4,28,29.71,2,33.703,2,40.94
Mirai,MR99K7,146,1999,11,22,14,50,5.8693,136.8626,-9.99,9,359.91,2,263,0.6,1008.4,28,29.73,2,33.694,2,40.99
Mirai,MR99K7,147,1999,11,22,14,56,5.8509,136.8439,366.84,2,-9.99,9,232,0.7,1008.3,28,29.74,2,33.7,2,41
Mirai,MR99K7,148,1999,11,22,15,2,5.8332,136.8262,366.82,2,-9.99,9,249,0.5,1008.3,28,29.7,2,33.709,2,40.9
Mirai,MR99K7,149,1999,11,22,15,17,5.7917,136.7846,-9.99,9,361.63,2,305,1.6,1008.1,28.1,29.75,2,33.72,2,41.04
Mirai,MR99K7,150,1999,11,22,15,29,5.7566,136.7497,-9.99,9,362.13,2,317,2.1,1008,28.1,29.75,2,33.721,2,41.02
Mirai,MR99K7,151,1999,11,22,16,8,5.6434,136.6327,-9.99,9,360.42,2,298,2.6,1007.6,28,29.67,2,33.727,2,40.85
Mirai,MR99K7,152,1999,11,22,16,20,5.6085,136.5961,-9.99,9,362.33,2,279,2.3,1007.6,28,27.96,2,33.744,2,36.99
Mirai,MR99K7,153,1999,11,22,16,26,5.5911,136.5779,366.78,2,-9.99,9,270,2.1,1007.5,28,29.76,2,33.761,2,41.05
Mirai,MR99K7,154,1999,11,22,16,32,5.5739,136.56,366.69,2,-9.99,9,236,1.7,1007.5,28,29.77,2,33.757,2,41.07
Mirai,MR99K7,155,1999,11,22,16,47,5.533,136.5178,-9.99,9,361.86,2,251,1.9,1007.3,28,29.72,2,33.745,2,40.96
Mirai,MR99K7,156,1999,11,22,16,59,5.4981,136.4813,-9.99,9,362.59,2,255,1.9,1007.1,27.9,29.71,2,33.749,2,40.94
Mirai,MR99K7,157,1999,11,22,17,38,5.3811,136.3635,-9.99,9,360.97,2,249,2.1,1006.8,27.9,29.76,2,33.791,2,41.06
Mirai,MR99K7,158,1999,11,22,17,50,5.3455,136.3282,-9.99,9,358.94,2,232,1.8,1006.8,27.9,29.72,2,33.745,2,40.96
Mirai,MR99K7,159,1999,11,22,17,56,5.3272,136.3095,366.7,2,-9.99,9,215,1.2,1006.8,27.8,29.67,2,33.74,2,40.84
Mirai,MR99K7,160,1999,11,22,18,2,5.3098,136.2916,366.7,2,-9.99,9,248.5,1.25,1006.7,27.8,29.71,2,33.733,2,40.93
Mirai,MR99K7,161,1999,11,22,18,17,5.2689,136.2498,-9.99,9,359.2,2,282,1.3,1006.6,27.8,29.68,2,33.726,2,40.87
Mirai,MR99K7,162,1999,11,22,18,29,5.2345,136.2146,-9.99,9,369.84,2,278,1.6,1006.4,27.7,29.68,2,33.687,2,40.87
Mirai,MR99K7,163,1999,11,22,19,8,5.1219,136.0983,-9.99,9,358.73,2,290,2.6,1006.5,27.8,29.66,2,33.721,2,40.82
Mirai,MR99K7,164,1999,11,22,19,20,5.0872,136.0625,-9.99,9,358.72,2,305,2.3,1006.5,27.8,29.68,2,33.706,2,40.86
Mirai,MR99K7,165,1999,11,22,19,26,5.0691,136.0438,366.61,2,-9.99,9,305,2.5,1006.4,27.8,29.71,2,33.715,2,40.95
Mirai,MR99K7,166,1999,11,22,19,32,5.0521,136.026,366.69,2,-9.99,9,298,2.2,1006.4,27.8,29.7,2,33.723,2,40.91
Mirai,MR99K7,167,1999,11,22,19,47,5.0111,135.9837,-9.99,9,359.06,2,295,2.1,1006.6,27.8,29.63,2,33.709,2,40.76
Mirai,MR99K7,168,1999,11,22,19,59,4.9762,135.9485,-9.99,9,359.21,2,336,2.3,1006.6,27.8,29.65,2,33.702,2,40.8
Mirai,MR99K7,169,1999,11,22,20,38,4.8611,135.8364,-9.99,9,357.46,2,339,1.8,1006.9,27.8,29.61,2,33.637,2,40.7
Mirai,MR99K7,170,1999,11,22,20,50,4.8262,135.8027,-9.99,9,358.73,2,334,1.2,1007.1,27.8,29.69,2,33.641,2,40.88
Mirai,MR99K7,171,1999,11,22,20,56,4.8081,135.7845,366.68,2,-9.99,9,316,2,1007.2,27.7,29.71,2,33.603,2,40.94
Mirai,MR99K7,172,1999,11,22,21,2,4.7913,135.7668,366.73,2,-9.99,9,333,2.2,1007.3,27.8,29.71,2,33.585,2,40.94
Mirai,MR99K7,173,1999,11,22,21,17,4.7517,135.7251,-9.99,9,360.67,2,341,1.5,1007.5,27.9,29.76,2,33.629,2,41.04
Mirai,MR99K7,174,1999,11,22,21,29,4.7179,135.689,-9.99,9,361.46,2,305,1.8,1007.7,28,29.77,2,33.672,2,41.08
Mirai,MR99K7,175,1999,11,22,22,8,4.6081,135.5727,-9.99,9,359.66,2,318,2.5,1008.3,28.2,29.71,2,33.666,2,40.93
Mirai,MR99K7,176,1999,11,22,22,20,4.5744,135.5383,-9.99,9,359.11,2,318,1.5,1008.4,28.3,29.71,2,33.603,2,40.93
Mirai,MR99K7,177,1999,11,22,22,26,4.5564,135.52,366.84,2,-9.99,9,292,1.6,1008.5,28.5,29.64,2,33.579,2,40.77
Mirai,MR99K7,178,1999,11,22,22,32,4.5398,135.5027,366.72,2,-9.99,9,311,2,1008.5,28.5,29.63,2,33.567,2,40.76
Mirai,MR99K7,179,1999,11,22,22,47,4.5001,135.4618,-9.99,9,357.56,2,306,2.2,1008.7,28.5,29.65,2,33.593,2,40.79
Mirai,MR99K7,180,1999,11,22,22,59,4.4667,135.4273,-9.99,9,357.63,2,316,2.3,1008.7,28.5,29.62,2,33.61,2,40.74
Mirai,MR99K7,181,1999,11,22,23,38,4.3571,135.3135,-9.99,9,357.36,2,333,3.2,1009,28.7,29.68,2,33.632,2,40.88
Mirai,MR99K7,182,1999,11,22,23,50,4.3231,135.2789,-9.99,9,366.9,2,325,3.4,1008.9,28.6,29.7,2,33.625,2,40.92
Mirai,MR99K7,183,1999,11,22,23,56,4.3116,135.2611,366.81,2,-9.99,9,325,3.1,1008.9,28.6,29.77,2,33.636,2,41.07
Mirai,MR99K7,184,1999,11,23,0,2,4.2907,135.2432,366.8,2,-9.99,9,323,3,1008.8,28.7,29.79,2,33.811,2,41.12
Mirai,MR99K7,185,1999,11,23,0,17,4.2489,135.2029,-9.99,9,364.26,2,324,2.9,-9.99,28.7,29.74,2,33.985,2,41.02
Mirai,MR99K7,186,1999,11,23,0,29,4.2159,135.1687,-9.99,9,362.02,2,324,2.8,1008.9,28.7,29.65,2,33.96,2,40.8
Mirai,MR99K7,187,1999,11,23,1,8,4.1062,135.0576,-9.99,9,363.79,2,316,2.3,1009,29.1,29.73,2,33.959,2,40.98
Mirai,MR99K7,188,1999,11,23,1,20,4.0731,135.0236,-9.99,9,363.34,2,310,2.3,1009,29.2,29.7,2,33.972,2,40.91
Mirai,MR99K7,189,1999,11,23,1,26,4.056,135.0122,366.91,2,-9.99,9,309,2.2,1009.1,29.3,29.69,2,33.996,2,40.88
Mirai,MR99K7,190,1999,11,23,1,32,4.0487,135.0029,366.89,2,-9.99,9,353,1.9,1009,29.5,29.69,2,34.001,2,40.89
Mirai,MR99K7,191,1999,11,23,1,47,4.0504,135.0058,-9.99,9,363.16,2,313,1.2,1008.9,29.2,29.68,2,33.986,2,40.86
Mirai,MR99K7,192,1999,11,23,1,59,4.051,135.0066,-9.99,9,363.64,2,346,1.6,1008.8,29.4,29.65,2,33.991,2,40.79
Mirai,MR99K7,193,1999,11,23,2,38,4.05,135.0068,-9.99,9,365.84,2,29,0.7,1008.7,29.3,29.95,2,33.975,2,41.5
Mirai,MR99K7,194,1999,11,23,2,50,4.0498,135.0076,-9.99,9,364.16,2,22,0.9,1008.7,30,29.75,2,33.986,2,41.04
Mirai,MR99K7,195,1999,11,23,2,56,4.0484,135.0096,367.14,2,-9.99,9,307,1,1008.6,29.7,29.75,2,33.974,2,41.04
Mirai,MR99K7,196,1999,11,23,3,2,4.0468,135.0195,367.5,2,-9.99,9,319,1.2,1008.4,31.7,29.84,2,33.972,2,41.25
Mirai,MR99K7,197,1999,11,23,3,17,4.0424,135.0314,-9.99,9,367.4,2,328,1.6,1008.2,30,29.98,2,33.97,2,41.58
Mirai,MR99K7,198,1999,11,23,3,29,4.0434,135.0326,-9.99,9,363.55,2,2,1.8,1007.9,29.7,29.7,2,33.967,2,40.92
Mirai,MR99K7,199,1999,11,23,4,8,4.0586,135.0491,-9.99,9,363.94,2,210,0.1,1007.9,31.1,29.77,2,33.975,2,41.07
Mirai,MR99K7,200,1999,11,23,4,20,4.0609,135.0543,-9.99,9,363.49,2,271,1.1,1007.8,31.8,29.67,2,33.985,2,40.85
Mirai,MR99K7,201,1999,11,23,4,26,4.0601,135.0556,366.83,2,-9.99,9,239,1.3,1007.8,31.7,29.78,2,33.978,2,41.11
Mirai,MR99K7,202,1999,11,23,4,32,4.0591,135.0563,366.89,2,-9.99,9,234,1.2,1007.8,31.4,29.85,2,33.987,2,41.27
Mirai,MR99K7,203,1999,11,23,4,47,4.06,135.0612,-9.99,9,364.75,2,326,0.7,1007.6,31.9,29.73,2,33.992,2,40.98
Mirai,MR99K7,204,1999,11,23,4,59,4.061,135.0656,-9.99,9,364.59,2,228,0.9,1007.7,32.2,29.75,2,33.988,2,41.03
Mirai,MR99K7,205,1999,11,23,5,38,4.0659,135.0734,-9.99,9,370.01,2,187,4.6,1007.3,29.8,30.13,2,33.991,2,41.94
Mirai,MR99K7,206,1999,11,23,5,50,4.0661,135.0721,-9.99,9,368.82,2,191,6,1007.3,29.4,30.22,2,33.966,2,42.15
Mirai,MR99K7,207,1999,11,23,5,56,4.0662,135.0715,366.7,2,-9.99,9,192,5.3,1007.2,29.1,30.57,2,33.971,2,43.01
Mirai,MR99K7,208,1999,11,23,6,2,4.0662,135.071,366.77,2,-9.99,9,189,5.1,1007.3,28.9,30.31,2,33.997,2,42.38
Mirai,MR99K7,209,1999,11,23,6,17,4.0654,135.0707,-9.99,9,368.5,2,163,3.7,1007.3,28.6,30.16,2,33.96,2,42.01
Mirai,MR99K7,210,1999,11,23,6,29,4.064,135.0719,-9.99,9,366.26,2,168,4.4,1007.2,28.8,30.07,2,33.945,2,41.78
Mirai,MR99K7,211,1999,11,23,7,8,4.0617,135.0772,-9.99,9,367.4,2,158,2.4,1007.2,28.2,30.17,2,33.95,2,42.03
Mirai,MR99K7,212,1999,11,23,7,20,4.0609,135.0782,-9.99,9,368.41,2,158,2.1,1007.4,28.2,30.27,2,33.95,2,42.27